THY1DH LTFM-LICC

Flight info

Callsign THY1DH
Flight time 1h 54m
Altitude 38000
Route BARPE UM603 SUTIS DCT RUTOM/N0467F370 DCT DODEL/N0377F190 Q72 PIMOR
Aircraft B738/M-SDE2E3FGHIRWXY/LB1

Departure

Time 2026-02-20 09:28
Airport İstanbul Airport (LTFM)

Arrival

Time 2026-02-20 11:22
Airport Catania-Fontanarossa Airport (LICC)
Time Latitude Longitude Altitude Speed Heading
2026-02-20 08:58 41.26347 28.74466 312 ft 0 kts 199°
2026-02-20 09:16 41.26347 28.74465 312 ft 0 kts 199°
2026-02-20 09:16 41.26359 28.74471 311 ft 3 kts 212°
2026-02-20 09:16 41.26371 28.74487 312 ft 3 kts 255°
2026-02-20 09:17 41.26373 28.74512 311 ft 3 kts 276°
2026-02-20 09:17 41.26371 28.74532 311 ft 1 kts 268°
2026-02-20 09:17 41.26371 28.74534 311 ft 0 kts 268°
2026-02-20 09:19 41.26371 28.74533 311 ft 1 kts 269°
2026-02-20 09:19 41.26375 28.74518 311 ft 3 kts 295°
2026-02-20 09:20 41.26402 28.74494 312 ft 7 kts 337°
2026-02-20 09:20 41.26463 28.74469 312 ft 12 kts 353°
2026-02-20 09:20 41.26561 28.74466 312 ft 16 kts
2026-02-20 09:20 41.26686 28.74464 312 ft 20 kts 359°
2026-02-20 09:21 41.26825 28.74462 311 ft 17 kts 359°
2026-02-20 09:21 41.26905 28.74461 311 ft 11 kts
2026-02-20 09:21 41.26966 28.74511 311 ft 11 kts 71°
2026-02-20 09:21 41.26970 28.74614 311 ft 12 kts 89°
2026-02-20 09:22 41.26972 28.74740 311 ft 15 kts 89°
2026-02-20 09:22 41.26973 28.74899 311 ft 19 kts 89°
2026-02-20 09:22 41.26975 28.75088 311 ft 22 kts 89°
2026-02-20 09:22 41.26977 28.75278 306 ft 16 kts 89°
2026-02-20 09:23 41.27044 28.75368 305 ft 15 kts
2026-02-20 09:23 41.27150 28.75368 306 ft 16 kts 359°
2026-02-20 09:23 41.27276 28.75368 303 ft 20 kts
2026-02-20 09:23 41.27431 28.75365 301 ft 24 kts 359°
2026-02-20 09:24 41.27608 28.75361 294 ft 26 kts 358°
2026-02-20 09:24 41.27799 28.75359 279 ft 29 kts 359°
2026-02-20 09:24 41.27982 28.75356 268 ft 26 kts 360°
2026-02-20 09:24 41.28169 28.75354 260 ft 28 kts 359°
2026-02-20 09:25 41.28365 28.75351 254 ft 28 kts 360°
2026-02-20 09:25 41.28540 28.75349 247 ft 24 kts 359°
2026-02-20 09:25 41.28717 28.75347 238 ft 27 kts 360°
2026-02-20 09:25 41.28869 28.75344 231 ft 14 kts 359°
2026-02-20 09:26 41.28966 28.75372 229 ft 15 kts 48°
2026-02-20 09:26 41.28976 28.75505 228 ft 14 kts 89°
2026-02-20 09:26 41.28967 28.75604 232 ft 8 kts 128°
2026-02-20 09:26 41.28917 28.75629 232 ft 0 kts 179°
2026-02-20 09:27 41.28901 28.75629 232 ft 16 kts 179°
2026-02-20 09:27 41.28554 28.75634 248 ft 82 kts 179°
2026-02-20 09:27 41.27791 28.75648 279 ft 135 kts 179°
2026-02-20 09:27 41.26766 28.75656 650 ft 152 kts 182°
2026-02-20 09:28 41.25726 28.75727 1530 ft 146 kts 167°
2026-02-20 09:28 41.24874 28.76544 2314 ft 157 kts 154°
2026-02-20 09:28 41.23886 28.77400 2626 ft 185 kts 156°
2026-02-20 09:28 41.22740 28.78404 2812 ft 208 kts 154°
2026-02-20 09:29 41.21465 28.79521 3053 ft 230 kts 154°
2026-02-20 09:29 41.20081 28.80730 3632 ft 243 kts 154°
2026-02-20 09:29 41.18656 28.81927 4404 ft 243 kts 161°
2026-02-20 09:29 41.17007 28.82307 4993 ft 246 kts 187°
2026-02-20 09:30 41.15279 28.82164 5720 ft 251 kts 186°
2026-02-20 09:30 41.13524 28.82045 6558 ft 253 kts 186°
2026-02-20 09:30 41.11759 28.81928 7356 ft 255 kts 186°
2026-02-20 09:30 41.09982 28.81811 8122 ft 258 kts 186°
2026-02-20 09:31 41.08174 28.81694 8876 ft 261 kts 187°
2026-02-20 09:31 41.06348 28.81576 9658 ft 264 kts 187°
2026-02-20 09:31 41.04501 28.81458 10381 ft 269 kts 188°
2026-02-20 09:31 41.02559 28.81330 10621 ft 291 kts 187°
2026-02-20 09:32 41.00457 28.81190 10792 ft 314 kts 187°
2026-02-20 09:32 40.98232 28.80837 10933 ft 330 kts 200°
2026-02-20 09:32 40.96216 28.79406 11186 ft 340 kts 220°
2026-02-20 09:32 40.94650 28.77050 11697 ft 345 kts 237°
2026-02-20 09:33 40.93409 28.74319 12358 ft 348 kts 239°
2026-02-20 09:33 40.92161 28.71563 13004 ft 351 kts 238°
2026-02-20 09:33 40.90894 28.68780 13649 ft 355 kts 240°
2026-02-20 09:33 40.90121 28.66862 14070 ft 358 kts 243°
2026-02-20 09:34 40.89050 28.63881 14746 ft 359 kts 244°
2026-02-20 09:34 40.88001 28.60875 15444 ft 361 kts 244°
2026-02-20 09:34 40.86932 28.57863 16096 ft 363 kts 244°
2026-02-20 09:34 40.85834 28.54839 16733 ft 366 kts 243°
2026-02-20 09:35 40.84718 28.51798 17365 ft 369 kts 243°
2026-02-20 09:35 40.83698 28.48675 17972 ft 374 kts 252°
2026-02-20 09:35 40.83294 28.45250 18560 ft 379 kts 262°
2026-02-20 09:35 40.83053 28.41770 19107 ft 381 kts 262°
2026-02-20 09:36 40.82796 28.38275 19638 ft 384 kts 261°
2026-02-20 09:36 40.82526 28.34758 20180 ft 386 kts 261°
2026-02-20 09:36 40.82246 28.31221 20704 ft 388 kts 261°
2026-02-20 09:36 40.81959 28.27663 21219 ft 391 kts 261°
2026-02-20 09:37 40.81667 28.24087 21713 ft 393 kts 261°
2026-02-20 09:37 40.81371 28.20488 22186 ft 395 kts 261°
2026-02-20 09:37 40.81073 28.16875 22643 ft 398 kts 260°
2026-02-20 09:37 40.80770 28.13219 23108 ft 401 kts 260°
2026-02-20 09:38 40.80470 28.09605 23562 ft 403 kts 260°
2026-02-20 09:38 40.80160 28.05874 23984 ft 405 kts 260°
2026-02-20 09:38 40.79855 28.02214 24383 ft 406 kts 260°
2026-02-20 09:38 40.79544 27.98511 24786 ft 407 kts 260°
2026-02-20 09:39 40.79229 27.94790 25171 ft 409 kts 260°
2026-02-20 09:39 40.78912 27.91060 25526 ft 410 kts 260°
2026-02-20 09:39 40.78592 27.87308 25879 ft 412 kts 260°
2026-02-20 09:39 40.78270 27.83544 26226 ft 413 kts 260°
2026-02-20 09:40 40.77947 27.79773 26563 ft 415 kts 260°
2026-02-20 09:40 40.77622 27.75983 26896 ft 416 kts 260°
2026-02-20 09:40 40.77294 27.72184 27213 ft 418 kts 260°
2026-02-20 09:40 40.76963 27.68368 27518 ft 419 kts 260°
2026-02-20 09:41 40.76629 27.64539 27802 ft 421 kts 260°
2026-02-20 09:41 40.76309 27.60696 28136 ft 422 kts 263°
2026-02-20 09:41 40.76537 27.56808 28550 ft 430 kts 277°
2026-02-20 09:41 40.77468 27.53043 29087 ft 436 kts 288°
2026-02-20 09:42 40.79040 27.49592 29575 ft 444 kts 300°
2026-02-20 09:42 40.80950 27.46374 30052 ft 445 kts 301°
2026-02-20 09:42 40.82898 27.43189 30396 ft 445 kts 301°
2026-02-20 09:43 40.86704 27.36754 31029 ft 443 kts 299°
2026-02-20 09:43 40.88272 27.33336 31357 ft 428 kts 285°
2026-02-20 09:43 40.89070 27.29637 31747 ft 414 kts 274°
2026-02-20 09:43 40.89498 27.25932 32114 ft 411 kts 272°
2026-02-20 09:44 40.89885 27.22195 32389 ft 412 kts 272°
2026-02-20 09:44 40.90276 27.18440 32670 ft 412 kts 272°
2026-02-20 09:44 40.90681 27.14704 33052 ft 410 kts 272°
2026-02-20 09:44 40.91099 27.10979 33429 ft 408 kts 272°
2026-02-20 09:45 40.91522 27.07271 33771 ft 408 kts 272°
2026-02-20 09:45 40.91946 27.03554 34004 ft 408 kts 272°
2026-02-20 09:45 40.92368 26.99848 34248 ft 408 kts 272°
2026-02-20 09:45 40.92622 26.96136 34479 ft 401 kts 263°
2026-02-20 09:46 40.92449 26.92471 34758 ft 398 kts 261°
2026-02-20 09:46 40.92202 26.88825 35000 ft 398 kts 260°
2026-02-20 09:46 40.91945 26.85187 35247 ft 397 kts 260°
2026-02-20 09:46 40.91701 26.81611 35532 ft 396 kts 260°
2026-02-20 09:47 40.91463 26.77941 35772 ft 395 kts 261°
2026-02-20 09:47 40.91239 26.74362 35948 ft 396 kts 261°
2026-02-20 09:47 40.91018 26.70728 36166 ft 396 kts 261°
2026-02-20 09:47 40.90800 26.67109 36415 ft 395 kts 261°
2026-02-20 09:48 40.90583 26.63489 36634 ft 395 kts 261°
2026-02-20 09:48 40.90365 26.59865 36832 ft 395 kts 261°
2026-02-20 09:48 40.90146 26.56244 37078 ft 395 kts 261°
2026-02-20 09:48 40.89927 26.52640 37351 ft 393 kts 261°
2026-02-20 09:49 40.89707 26.49033 37564 ft 393 kts 261°
2026-02-20 09:49 40.89485 26.45432 37708 ft 394 kts 261°
2026-02-20 09:49 40.89261 26.41828 37893 ft 394 kts 261°
2026-02-20 09:49 40.89037 26.38225 38038 ft 393 kts 261°
2026-02-20 09:50 40.88812 26.34609 38066 ft 396 kts 261°
2026-02-20 09:50 40.87760 26.27508 38091 ft 395 kts 247°
2026-02-20 09:51 40.85784 26.20715 38083 ft 397 kts 248°
2026-02-20 09:51 40.83820 26.13877 38079 ft 398 kts 248°
2026-02-20 09:52 40.81866 26.07035 38074 ft 398 kts 248°
2026-02-20 09:52 40.79914 26.00197 38076 ft 398 kts 248°
2026-02-20 09:53 40.77962 25.93369 38094 ft 396 kts 248°
2026-02-20 09:53 40.76025 25.86615 38071 ft 396 kts 248°
2026-02-20 09:54 40.74080 25.79851 38072 ft 395 kts 248°
2026-02-20 09:54 40.72131 25.73089 38067 ft 393 kts 247°
2026-02-20 09:55 40.70184 25.66353 38070 ft 393 kts 247°
2026-02-20 09:55 40.68234 25.59626 38040 ft 393 kts 247°
2026-02-20 09:56 40.66285 25.52918 38062 ft 392 kts 247°
2026-02-20 09:56 40.64331 25.46208 38068 ft 392 kts 247°
2026-02-20 09:57 40.62369 25.39491 38062 ft 393 kts 247°
2026-02-20 09:57 40.60405 25.32782 38094 ft 393 kts 247°
2026-02-20 09:58 40.58430 25.26055 38064 ft 394 kts 247°
2026-02-20 09:58 40.56453 25.19337 38052 ft 394 kts 247°
2026-02-20 09:59 40.54469 25.12612 38051 ft 394 kts 247°
2026-02-20 09:59 40.52481 25.05894 38048 ft 394 kts 247°
2026-02-20 10:00 40.50489 24.99174 38063 ft 395 kts 246°
2026-02-20 10:00 40.48492 24.92458 38054 ft 395 kts 246°
2026-02-20 10:01 40.46490 24.85742 38042 ft 395 kts 246°
2026-02-20 10:01 40.44486 24.79036 38034 ft 394 kts 247°
2026-02-20 10:02 40.42492 24.72381 38038 ft 394 kts 246°
2026-02-20 10:02 40.40479 24.65679 38030 ft 394 kts 246°
2026-02-20 10:03 40.38463 24.58984 38025 ft 395 kts 246°
2026-02-20 10:03 40.36443 24.52292 38025 ft 395 kts 246°
2026-02-20 10:04 40.34418 24.45598 37995 ft 395 kts 246°
2026-02-20 10:04 40.32391 24.38918 38011 ft 395 kts 246°
2026-02-20 10:05 40.30356 24.32229 38020 ft 396 kts 246°
2026-02-20 10:05 40.28310 24.25515 38014 ft 397 kts 246°
2026-02-20 10:06 40.26252 24.18785 38020 ft 399 kts 246°
2026-02-20 10:06 40.24181 24.12025 38002 ft 400 kts 246°
2026-02-20 10:07 40.22118 24.05309 38034 ft 401 kts 246°
2026-02-20 10:07 40.20030 23.98527 38004 ft 401 kts 246°
2026-02-20 10:08 40.17941 23.91762 37998 ft 401 kts 246°
2026-02-20 10:08 40.15845 23.84989 37990 ft 401 kts 246°
2026-02-20 10:09 40.13750 23.78236 38000 ft 401 kts 246°
2026-02-20 10:09 40.11650 23.71487 38009 ft 400 kts 246°
2026-02-20 10:10 40.09567 23.64802 37980 ft 392 kts 246°
2026-02-20 10:10 40.07520 23.58252 37984 ft 388 kts 246°
2026-02-20 10:11 40.05495 23.51790 37990 ft 387 kts 246°
2026-02-20 10:11 40.03454 23.45292 37984 ft 387 kts 246°
2026-02-20 10:12 40.01411 23.38804 37995 ft 387 kts 246°
2026-02-20 10:12 39.99358 23.32298 38000 ft 388 kts 246°
2026-02-20 10:13 39.97299 23.25791 37988 ft 388 kts 246°
2026-02-20 10:13 39.95237 23.19286 37994 ft 388 kts 246°
2026-02-20 10:14 39.93167 23.12774 37997 ft 389 kts 246°
2026-02-20 10:14 39.91104 23.06295 37991 ft 390 kts 245°
2026-02-20 10:15 39.89015 22.99755 37998 ft 392 kts 245°
2026-02-20 10:15 39.86911 22.93183 38000 ft 395 kts 245°
2026-02-20 10:16 39.84793 22.86581 37988 ft 395 kts 245°
2026-02-20 10:16 39.82677 22.79999 38011 ft 394 kts 245°
2026-02-20 10:17 39.80557 22.73424 38008 ft 394 kts 245°
2026-02-20 10:17 39.78437 22.66861 38023 ft 394 kts 245°
2026-02-20 10:18 39.76306 22.60283 38016 ft 394 kts 245°
2026-02-20 10:18 39.74533 22.54814 38014 ft 395 kts 244°
2026-02-20 10:19 39.72027 22.47117 38003 ft 396 kts 245°
2026-02-20 10:19 39.69892 22.40573 38027 ft 398 kts 245°
2026-02-20 10:20 39.67716 22.33920 38010 ft 401 kts 245°
2026-02-20 10:20 39.65534 22.27261 38016 ft 401 kts 245°
2026-02-20 10:21 39.63346 22.20601 38007 ft 401 kts 245°
2026-02-20 10:21 39.61160 22.13960 38000 ft 400 kts 244°
2026-02-20 10:22 39.58970 22.07326 38006 ft 400 kts 245°
2026-02-20 10:22 39.56771 22.00680 38004 ft 402 kts 245°
2026-02-20 10:23 39.54560 21.94013 38023 ft 404 kts 245°
2026-02-20 10:23 39.52347 21.87357 38003 ft 405 kts 245°
2026-02-20 10:24 39.50113 21.80652 38005 ft 406 kts 245°
2026-02-20 10:24 39.47874 21.73948 37998 ft 406 kts 245°
2026-02-20 10:25 39.46002 21.68352 37998 ft 402 kts 245°
2026-02-20 10:25 39.43799 21.61782 38018 ft 399 kts 244°
2026-02-20 10:26 39.41589 21.55210 37988 ft 397 kts 245°
2026-02-20 10:26 39.39381 21.48672 38012 ft 397 kts 245°
2026-02-20 10:27 39.37170 21.42128 38003 ft 397 kts 245°
2026-02-20 10:27 39.34966 21.35607 37979 ft 395 kts 244°
2026-02-20 10:28 39.32774 21.29124 38011 ft 393 kts 244°
2026-02-20 10:28 39.30573 21.22665 38019 ft 391 kts 244°
2026-02-20 10:29 39.28379 21.16227 38011 ft 392 kts 244°
2026-02-20 10:29 39.26183 21.09802 38027 ft 391 kts 244°
2026-02-20 10:30 39.23982 21.03375 38024 ft 392 kts 244°
2026-02-20 10:30 39.21774 20.96939 38027 ft 392 kts 244°
2026-02-20 10:31 39.19559 20.90499 38013 ft 393 kts 244°
2026-02-20 10:31 39.17341 20.84063 38008 ft 394 kts 244°
2026-02-20 10:32 39.15112 20.77610 38017 ft 394 kts 244°
2026-02-20 10:32 39.12873 20.71142 38011 ft 395 kts 244°
2026-02-20 10:33 39.10628 20.64672 38032 ft 396 kts 244°
2026-02-20 10:33 39.08372 20.58186 38006 ft 397 kts 244°
2026-02-20 10:34 39.06124 20.51733 37997 ft 398 kts 244°
2026-02-20 10:34 39.03841 20.45199 38014 ft 398 kts 245°
2026-02-20 10:35 39.01578 20.38733 38003 ft 400 kts 245°
2026-02-20 10:35 38.99288 20.32207 38010 ft 401 kts 245°
2026-02-20 10:36 38.96989 20.25668 38011 ft 401 kts 244°
2026-02-20 10:36 38.94684 20.19126 38008 ft 402 kts 244°
2026-02-20 10:37 38.92371 20.12579 38032 ft 402 kts 245°
2026-02-20 10:37 38.90050 20.06023 38012 ft 404 kts 245°
2026-02-20 10:38 38.87721 19.99458 38007 ft 404 kts 245°
2026-02-20 10:38 38.85403 19.92938 38001 ft 404 kts 245°
2026-02-20 10:39 38.83065 19.86377 38009 ft 404 kts 245°
2026-02-20 10:39 38.80724 19.79824 38030 ft 404 kts 245°
2026-02-20 10:40 38.78375 19.73260 38014 ft 405 kts 245°
2026-02-20 10:40 38.76024 19.66707 37999 ft 404 kts 245°
2026-02-20 10:41 38.73670 19.60160 37997 ft 404 kts 245°
2026-02-20 10:41 38.71314 19.53622 38003 ft 404 kts 245°
2026-02-20 10:42 38.68953 19.47084 38005 ft 404 kts 245°
2026-02-20 10:42 38.66585 19.40541 38011 ft 405 kts 245°
2026-02-20 10:43 38.64211 19.33997 37998 ft 406 kts 245°
2026-02-20 10:43 38.60643 19.24185 37990 ft 405 kts 245°
2026-02-20 10:44 38.58279 19.17702 38002 ft 405 kts 245°
2026-02-20 10:44 38.55894 19.11175 38028 ft 405 kts 245°
2026-02-20 10:45 38.53499 19.04634 38007 ft 406 kts 245°
2026-02-20 10:45 38.51156 18.98063 37994 ft 407 kts 248°
2026-02-20 10:46 38.49056 18.91353 37995 ft 407 kts 249°
2026-02-20 10:46 38.46987 18.84624 37991 ft 407 kts 249°
2026-02-20 10:47 38.44907 18.77912 37991 ft 407 kts 249°
2026-02-20 10:47 38.42819 18.71229 37996 ft 408 kts 248°
2026-02-20 10:48 38.40713 18.64518 37995 ft 408 kts 248°
2026-02-20 10:48 38.38595 18.57789 37998 ft 409 kts 248°
2026-02-20 10:49 38.36472 18.51057 37991 ft 410 kts 248°
2026-02-20 10:49 38.34339 18.44312 37998 ft 410 kts 248°
2026-02-20 10:50 38.32209 18.37593 38003 ft 412 kts 248°
2026-02-20 10:50 38.30050 18.30796 38005 ft 414 kts 248°
2026-02-20 10:51 38.27880 18.23982 38006 ft 417 kts 248°
2026-02-20 10:51 38.25695 18.17140 38005 ft 418 kts 248°
2026-02-20 10:52 38.23496 18.10267 38000 ft 420 kts 248°
2026-02-20 10:52 38.21287 18.03382 38000 ft 420 kts 248°
2026-02-20 10:53 38.19073 17.96498 37996 ft 420 kts 248°
2026-02-20 10:53 38.16860 17.89631 37995 ft 418 kts 248°
2026-02-20 10:54 38.14655 17.82808 37994 ft 416 kts 248°
2026-02-20 10:54 38.12474 17.76076 37997 ft 414 kts 248°
2026-02-20 10:55 38.10280 17.69317 38000 ft 413 kts 248°
2026-02-20 10:55 38.08087 17.62578 38000 ft 413 kts 248°
2026-02-20 10:56 38.05889 17.55842 38003 ft 413 kts 248°
2026-02-20 10:56 38.03688 17.49108 38004 ft 413 kts 248°
2026-02-20 10:57 38.01477 17.42364 37569 ft 419 kts 248°
2026-02-20 10:57 38.00362 17.38966 37066 ft 417 kts 248°
2026-02-20 10:57 37.99246 17.35573 36468 ft 416 kts 248°
2026-02-20 10:58 37.98133 17.32190 35849 ft 416 kts 247°
2026-02-20 10:58 37.97017 17.28803 35177 ft 417 kts 247°
2026-02-20 10:58 37.95897 17.25406 34476 ft 419 kts 247°
2026-02-20 10:58 37.94769 17.21993 33717 ft 421 kts 246°
2026-02-20 10:59 37.93640 17.18576 32932 ft 421 kts 246°
2026-02-20 10:59 37.92505 17.15149 32163 ft 420 kts 246°
2026-02-20 10:59 37.91390 17.11784 31444 ft 419 kts 246°
2026-02-20 10:59 37.90271 17.08410 30939 ft 412 kts 246°
2026-02-20 11:00 37.89167 17.05087 30412 ft 407 kts 246°
2026-02-20 11:00 37.88072 17.01800 29855 ft 403 kts 246°
2026-02-20 11:00 37.86991 16.98550 29246 ft 397 kts 246°
2026-02-20 11:00 37.85926 16.95355 28732 ft 391 kts 246°
2026-02-20 11:01 37.84880 16.92217 28212 ft 385 kts 246°
2026-02-20 11:01 37.83844 16.89117 27699 ft 380 kts 246°
2026-02-20 11:01 37.82822 16.86061 27182 ft 375 kts 246°
2026-02-20 11:01 37.81809 16.83035 26676 ft 372 kts 246°
2026-02-20 11:02 37.80805 16.80039 26174 ft 368 kts 246°
2026-02-20 11:02 37.79811 16.77076 25680 ft 365 kts 246°
2026-02-20 11:02 37.78818 16.74119 25191 ft 364 kts 246°
2026-02-20 11:02 37.77834 16.71190 24699 ft 362 kts 246°
2026-02-20 11:03 37.76848 16.68261 24230 ft 364 kts 248°
2026-02-20 11:03 37.75836 16.65256 23701 ft 379 kts 248°
2026-02-20 11:03 37.74798 16.62174 23095 ft 382 kts 248°
2026-02-20 11:03 37.73774 16.59140 22529 ft 378 kts 248°
2026-02-20 11:04 37.72748 16.56103 22025 ft 373 kts 248°
2026-02-20 11:04 37.71732 16.53102 21508 ft 369 kts 248°
2026-02-20 11:04 37.70730 16.50140 21019 ft 364 kts 248°
2026-02-20 11:04 37.69738 16.47214 20513 ft 360 kts 248°
2026-02-20 11:05 37.68758 16.44325 20016 ft 357 kts 248°
2026-02-20 11:05 37.67785 16.41459 19537 ft 353 kts 248°
2026-02-20 11:05 37.66820 16.38619 19055 ft 350 kts 248°
2026-02-20 11:05 37.65863 16.35802 18577 ft 348 kts 248°
2026-02-20 11:06 37.64912 16.33010 18068 ft 345 kts 248°
2026-02-20 11:06 37.63980 16.30273 17547 ft 342 kts 248°
2026-02-20 11:06 37.63043 16.27524 17027 ft 339 kts 248°
2026-02-20 11:06 37.62113 16.24801 16554 ft 336 kts 248°
2026-02-20 11:07 37.61191 16.22104 16093 ft 333 kts 248°
2026-02-20 11:07 37.60370 16.19388 15608 ft 330 kts 255°
2026-02-20 11:07 37.59928 16.16572 15149 ft 326 kts 264°
2026-02-20 11:07 37.59694 16.13740 14692 ft 324 kts 264°
2026-02-20 11:08 37.59475 16.10930 14233 ft 322 kts 264°
2026-02-20 11:08 37.59254 16.08131 13766 ft 320 kts 264°
2026-02-20 11:08 37.59029 16.05354 13264 ft 318 kts 264°
2026-02-20 11:08 37.58800 16.02589 12764 ft 316 kts 264°
2026-02-20 11:09 37.58570 15.99842 12291 ft 314 kts 264°
2026-02-20 11:09 37.58341 15.97122 11837 ft 312 kts 264°
2026-02-20 11:09 37.58111 15.94414 11399 ft 309 kts 264°
2026-02-20 11:09 37.57885 15.91768 11270 ft 298 kts 264°
2026-02-20 11:10 37.57667 15.89218 11126 ft 287 kts 264°
2026-02-20 11:10 37.57455 15.86762 11003 ft 277 kts 264°
2026-02-20 11:10 37.57204 15.84372 10704 ft 273 kts 262°
2026-02-20 11:10 37.56892 15.82026 10410 ft 270 kts 261°
2026-02-20 11:11 37.56576 15.79735 10099 ft 268 kts 261°
2026-02-20 11:11 37.56256 15.77419 9944 ft 260 kts 261°
2026-02-20 11:11 37.55960 15.75258 9777 ft 251 kts 261°
2026-02-20 11:11 37.55659 15.73041 9263 ft 257 kts 262°
2026-02-20 11:12 37.55357 15.70814 8894 ft 257 kts 262°
2026-02-20 11:12 37.55059 15.68610 8572 ft 254 kts 262°
2026-02-20 11:12 37.54763 15.66420 8271 ft 252 kts 262°
2026-02-20 11:12 37.54470 15.64253 7973 ft 250 kts 262°
2026-02-20 11:13 37.54180 15.62103 7683 ft 248 kts 262°
2026-02-20 11:13 37.53892 15.59972 7397 ft 245 kts 262°
2026-02-20 11:13 37.53607 15.57866 7110 ft 243 kts 262°
2026-02-20 11:13 37.53324 15.55780 6820 ft 238 kts 262°
2026-02-20 11:14 37.53053 15.53788 6553 ft 229 kts 263°
2026-02-20 11:14 37.52787 15.51841 6289 ft 222 kts 263°
2026-02-20 11:14 37.52530 15.49964 6010 ft 214 kts 262°
2026-02-20 11:14 37.52282 15.48150 5761 ft 206 kts 263°
2026-02-20 11:15 37.52042 15.46405 5527 ft 198 kts 263°
2026-02-20 11:15 37.51809 15.44717 5306 ft 194 kts 263°
2026-02-20 11:15 37.51579 15.43045 5095 ft 194 kts 263°
2026-02-20 11:15 37.51426 15.41929 4953 ft 196 kts 262°
2026-02-20 11:16 37.51192 15.40233 4733 ft 198 kts 262°
2026-02-20 11:16 37.50898 15.38510 4499 ft 204 kts 255°
2026-02-20 11:16 37.50421 15.36835 4257 ft 203 kts 253°
2026-02-20 11:16 37.49930 15.35169 4007 ft 202 kts 253°
2026-02-20 11:17 37.49448 15.33513 3773 ft 201 kts 254°
2026-02-20 11:17 37.48974 15.31872 3530 ft 199 kts 254°
2026-02-20 11:17 37.48580 15.30218 3293 ft 195 kts 265°
2026-02-20 11:17 37.48477 15.28554 3109 ft 187 kts 265°
2026-02-20 11:18 37.48357 15.26954 2875 ft 180 kts 265°
2026-02-20 11:18 37.48234 15.25410 2651 ft 175 kts 265°
2026-02-20 11:18 37.48122 15.23909 2446 ft 169 kts 266°
2026-02-20 11:18 37.48013 15.22474 2312 ft 159 kts 265°
2026-02-20 11:19 37.47903 15.21123 2120 ft 152 kts 264°
2026-02-20 11:19 37.47793 15.19810 1929 ft 149 kts 264°
2026-02-20 11:19 37.47686 15.18541 1716 ft 146 kts 265°
2026-02-20 11:19 37.47581 15.17303 1547 ft 135 kts 265°
2026-02-20 11:20 37.47488 15.16211 1412 ft 122 kts 265°
2026-02-20 11:20 37.47395 15.15104 1215 ft 127 kts 264°
2026-02-20 11:20 37.47304 15.14036 1041 ft 122 kts 264°
2026-02-20 11:20 37.47224 15.12977 938 ft 119 kts 263°
2026-02-20 11:21 37.47120 15.11925 786 ft 123 kts 264°
2026-02-20 11:21 37.47040 15.10834 595 ft 128 kts 266°
2026-02-20 11:21 37.46948 15.09716 448 ft 130 kts 262°
2026-02-20 11:21 37.46842 15.08549 215 ft 136 kts 262°
2026-02-20 11:22 37.46741 15.07386 61 ft 128 kts 262°
2026-02-20 11:22 37.46661 15.06435 52 ft 82 kts 264°
2026-02-20 11:22 37.46625 15.05991 50 ft 20 kts 263°
2026-02-20 11:22 37.46612 15.05851 50 ft 16 kts 263°
2026-02-20 11:23 37.46601 15.05715 49 ft 15 kts 263°
2026-02-20 11:23 37.46591 15.05587 49 ft 15 kts 269°
2026-02-20 11:23 37.46617 15.05491 49 ft 8 kts 317°
2026-02-20 11:23 37.46669 15.05466 50 ft 8 kts 359°
2026-02-20 11:24 37.46721 15.05487 50 ft 8 kts 39°
2026-02-20 11:24 37.46743 15.05523 50 ft 0 kts 63°
2026-02-20 11:25 37.46744 15.05523 50 ft 0 kts 63°
2026-02-20 11:25 37.46744 15.05524 50 ft 0 kts 63°
2026-02-20 11:25 37.46745 15.05526 50 ft 0 kts 63°
2026-02-20 11:26 37.46745 15.05528 50 ft 0 kts 63°
2026-02-20 11:26 37.46749 15.05539 50 ft 4 kts 70°
2026-02-20 11:26 37.46754 15.05596 50 ft 9 kts 83°
2026-02-20 11:26 37.46763 15.05690 50 ft 13 kts 83°
2026-02-20 11:27 37.46774 15.05815 50 ft 16 kts 84°
2026-02-20 11:27 37.46787 15.05969 50 ft 19 kts 84°
2026-02-20 11:27 37.46803 15.06152 50 ft 22 kts 84°
2026-02-20 11:27 37.46817 15.06309 50 ft 11 kts 82°
2026-02-20 11:28 37.46827 15.06400 50 ft 10 kts 83°
2026-02-20 11:28 37.46862 15.06473 50 ft 10 kts 46°
2026-02-20 11:28 37.46922 15.06517 49 ft 10 kts 16°
2026-02-20 11:28 37.46938 15.06523 50 ft 0 kts 18°
2026-02-20 11:29 37.46942 15.06525 50 ft 0 kts 18°
2026-02-20 11:29 37.46944 15.06526 50 ft 0 kts 18°